This demonstration page uses our WeatherBlox Daily Observations layout. Learn more.

41.55636, -103.73856

Hourly Observations for August 21, 2016

Temp ( °F °C ) Dew Point ( °F °C ) Humidity (%) Winds ( mph kmh ) Pressure ( in mb ) Visibility ( mi km ) Precip ( " mm )
12:53 am 00:53 Clear 50 10 47 8.3 89 89 E 5 7 30 1016 10 16.0934 0 0
1:53 am 01:53 Clear 50 10 46 7.8 86 86 E 7 11 29.99 1016 10 16.0934 0 0
2:53 am 02:53 Clear 50 10 45 7.2 83 83 E 7 11 29.99 1016 10 16.0934 0 0
3:53 am 03:53 Clear 49 9.4 44 6.7 83 83 E 6 9 29.98 1015 10 16.0934 0 0
4:53 am 04:53 Clear 49 9.4 43 6.1 80 80 Calm 29.97 1015 10 16.0934 0 0
5:53 am 05:53 Clear 48 8.9 43 6.1 83 83 E 6 9 29.97 1015 10 16.0934 0 0
6:53 am 06:53 Sunny 50 10 44 6.7 80 80 E 3 6 29.98 1015 10 16.0934 0 0
7:53 am 07:53 Sunny 54 12.2 46 7.8 75 75 ESE 6 9 29.99 1016 10 16.0934 0 0
8:53 am 08:53 Sunny 59 15 48 8.9 67 67 VRB 5 7 29.98 1015 10 16.0934 0 0
9:53 am 09:53 Sunny 66 18.9 49 9.4 54 54 VRB 3 6 29.96 1015 10 16.0934 0 0
10:53 am 10:53 Sunny 71 21.7 49 9.4 46 46 VRB 5 7 29.95 1014 10 16.0934 0 0
11:53 am 11:53 Sunny 76 24.4 46 7.8 35 35 SSW 3 6 29.93 1013 10 16.0934 0 0
12:53 pm 12:53 Sunny 81 27.2 40 4.4 23 23 SSW 3 6 29.9 1013 10 16.0934 0 0
1:53 pm 13:53 Sunny 82 27.8 48 8.9 31 31 E 8 13 29.88 1012 10 16.0934 0 0
2:53 pm 14:53 Sunny 84 28.9 52 11.1 33 33 E 9 15 29.84 1011 10 16.0934 0 0
3:53 pm 15:53 Sunny 86 30 53 11.7 32 32 E 9 15 29.81 1010 10 16.0934 0 0
4:53 pm 16:53 Sunny 87 30.6 52 11.1 30 30 E 10 17 29.79 1009 10 16.0934 0 0
5:53 pm 17:53 Sunny 84 28.9 54 12.2 36 36 E 10 17 29.78 1009 10 16.0934 0 0
6:53 pm 18:53 Sunny 80 26.7 57 13.9 45 45 E 10 17 29.77 1008 10 16.0934 0 0
7:53 pm 19:53 Clear 71 21.7 57 13.9 61 61 E 8 13 29.79 1009 10 16.0934 0 0
8:53 pm 20:53 Clear 67 19.4 54 12.2 63 63 E 7 11 29.8 1009 10 16.0934 0 0
9:53 pm 21:53 Clear 64 17.8 53 11.7 68 68 E 7 11 29.8 1009 10 16.0934 0 0
10:53 pm 22:53 Clear 63 17.2 52 11.1 68 68 E 5 7 29.78 1009 10 16.0934 0 0
11:53 pm 23:53 Clear 62 16.7 52 11.1 70 70 E 9 15 29.77 1008 10 16.0934 0 0

Powered by AerisWeather